Location: B�rgermoos
(47.6500°N, 9.0667°E)
Time: 17:12:10
(UTC+00:00)

Vanguard 1 - Pass Details

Date: 06 August 2021
Orbit: 652 x 3831 km, 34.3° (Epoch: 17 September)

Event Time Altitude Azimuth Distance (km) Brightness Sun altitude
Rises 10:16:36 0° 239° (WSW) 2,980 12.6 55.5°
Reaches altitude 10° 10:19:12 10° 221° (SW) 2,165 12.1 55.7°
Maximum altitude 10:22:48 21° 172° (S) 1,777 12.4 56.0°
Drops below altitude 10° 10:27:24 10° 126° (SE) 2,856 13.1 56.4°
Sets 10:31:30 0° 112° (ESE) 4,295 13.7 56.7°
